Flag for Canada Weather past 2 weeks in Dryden, Ontario, Canada

Now
37 °F

Low clouds.


Feels Like: 31 °F
Forecast: N/A
Wind: 8 mph from Southeast

Location: Dryden Airport

Current Time: Apr 19, 2015 at 4:08:45 PM

Latest Report: Apr 19, 2015 at 3:00 PM


Visibility: 9 mi

Pressure: 29.66 "Hg

Humidity: 100%

Dew point: 37 °F

Location of DrydenLocation

Historic Weather in Dryden — Graph

°F

Dryden temperature yesterday

Maximum temperature yesterday: 59 °F (at 4:00 PM)
Minimum temperature yesterday: 27 °F (at 6:00 AM)
Average temperature yesterday: 45 °F

Past Weeks' High & Low Weather Summary

 TemperatureHumidityPressure
High70 °F (Apr 15, 2:00 PM)100% (Apr 8, 2:00 AM)30.43 "Hg (Apr 8, 2:00 AM)
Low1 °F (Apr 5, 5:00 AM)16% (Apr 14, 1:00 PM)29.46 "Hg (Apr 12, 3:00 PM)
Average41 °F52%30.02 "Hg
* Reported Apr 4 3:00 PM — Apr 19 3:00 PM, Dryden, Weather by CustomWeather, © 2015

Note: Actual official high and low records may vary slightly from our data, if they occured in-between our weather recording intervals... More about our weather records

Advertising

Dryden weather history for previous 24 hours

 ConditionsComfort  
Time TempWeatherWind HumidityBarometerVisibility
3:00 PM
Sun, Apr 19
37 °FLow clouds.8 mph100%29.66 "Hg9 mi
2:00 PM37 °FLow clouds.8 mph100%29.67 "Hg9 mi
1:58 PM37 °FLow clouds.7 mph93%29.67 "Hg9 mi
1:00 PM39 °FLow clouds.10 mph93%29.68 "Hg9 mi
12:00 PM39 °FLight rain. Mostly cloudy.10 mph93%29.70 "Hg9 mi
11:00 AM37 °FLight rain. Low clouds.10 mph93%29.75 "Hg9 mi
10:03 AM36 °FLight rain. Fog.8 mph100%29.79 "Hg6 mi
9:00 AM36 °FLight rain. Fog.7 mph93%29.82 "Hg5 mi
8:00 AM36 °FLight rain. Mostly cloudy.14 mph81%29.84 "Hg8 mi
7:00 AM37 °FLight rain. Overcast.14 mph75%29.85 "Hg9 mi
6:00 AM39 °FLight rain. Mostly cloudy.14 mph56%29.85 "Hg9 mi
5:48 AM39 °FLight rain. Mostly cloudy.13 mph48%29.85 "Hg9 mi
5:00 AM39 °FOvercast.10 mph42%29.86 "Hg9 mi
4:00 AM41 °FOvercast.9 mph39%29.89 "Hg9 mi
3:00 AM41 °FPassing clouds.10 mph39%29.93 "Hg9 mi
2:00 AM41 °FPassing clouds.15 mph36%29.96 "Hg9 mi
1:00 AM43 °FMostly cloudy.20 mph34%29.97 "Hg9 mi
12:00 AM45 °FMostly cloudy.17 mph34%29.99 "Hg9 mi
11:00 PM
Sat, Apr 18
46 °FPassing clouds.13 mph32%30.01 "Hg9 mi
10:00 PM48 °FPassing clouds.15 mph32%30.03 "Hg9 mi
9:00 PM48 °FClear.9 mph32%30.05 "Hg9 mi
8:00 PM52 °FSunny.10 mph28%30.06 "Hg9 mi
7:00 PM57 °FSunny.13 mph23%30.08 "Hg9 mi
6:00 PM59 °FSunny.13 mph21%30.10 "Hg9 mi
5:00 PM57 °FPassing clouds.15 mph20%30.12 "Hg9 mi
4:00 PM59 °FSunny.9 mph20%30.13 "Hg9 mi
Weather by CustomWeather, © 2015

See weather overviewHow to use our weather pages